K2MST Weather Reports


time (UTC)temp
F
wind
direction
speed
knots
gust
knots
rain 1hr
in
rain 24hr
in
rain mn
in
humidity
%
barometer
mb
20260904005520 77 0.0 0.0 0.00 0.11 0.00 68 1010.7
20260904004521 78 0.0 1.7 0.00 0.12 0.00 67 1010.9
20260904003521 78 0 0.9 1.7 0.00 0.12 0.00 66 1010.8
20260904002521 78 0 0.9 1.7 0.00 0.12 0.00 66 1010.8
20260904001540 78 0 1.7 2.6 0.00 0.12 0.00 66 1010.6
20260904000520 78 338 0.9 2.6 0.00 0.12 0.00 67 1010.6
20260903235520 79 0.0 1.7 0.00 0.12 0.00 68 1010.6
20260903234541 79 338 1.7 3.5 0.00 0.12 0.00 65 1010.4
20260903233520 79 338 1.7 2.6 0.00 0.12 0.00 65 1010.6
20260903232520 79 338 2.6 5.2 0.00 0.12 0.00 66 1010.5
20260903231520 79 338 4.3 5.2 0.00 0.12 0.00 66 1010.5
20260903230520 80 23 4.3 6.1 0.00 0.12 0.00 67 1010.1
20260903225520 80 338 3.5 5.2 0.00 0.12 0.00 67 1010.2
20260903224520 80 23 3.5 6.1 0.00 0.12 0.00 67 1010.1
20260903223520 81 23 5.2 7.8 0.00 0.12 0.00 66 1010.0
20260903222520 82 23 2.6 4.3 0.00 0.12 0.00 62 1009.8
20260903221520 82 0 0.9 2.6 0.00 0.12 0.00 60 1010.0
20260903220520 83 23 2.6 3.5 0.00 0.12 0.00 60 1009.9
20260903215520 84 338 1.7 3.5 0.00 0.12 0.00 59 1009.9
20260903214520 83 270 1.7 3.5 0.00 0.12 0.00 61 1009.9
20260903213520 83 338 2.6 5.2 0.00 0.12 0.00 60 1010.0
20260903212540 84 338 2.6 5.2 0.00 0.12 0.00 59 1009.9
20260903211521 84 293 2.6 6.1 0.00 0.12 0.00 58 1009.9
20260903210520 85 315 2.6 4.3 0.00 0.12 0.00 57 1010.1
20260903205520 84 248 2.6 5.2 0.00 0.12 0.00 59 1010.2
20260903204520 84 338 1.7 4.3 0.00 0.12 0.00 58 1010.3
20260903203520 84 270 2.6 6.1 0.00 0.12 0.00 58 1010.4
20260903202520 84 293 1.7 3.5 0.00 0.12 0.00 58 1010.4
20260903201520 84 338 2.6 5.2 0.00 0.12 0.00 54 1010.4
20260903200520 86 293 1.7 3.5 0.00 0.12 0.00 54 1010.4
20260903195542 86 293 3.5 8.7 0.00 0.12 0.00 55 1010.3
20260903194522 85 293 3.5 8.7 0.00 0.12 0.00 55 1010.4
20260903193542 84 270 3.5 8.7 0.00 0.12 0.00 57 1010.6
20260903192521 85 315 3.5 6.1 0.00 0.12 0.00 56 1010.7
20260903191521 85 0 1.7 4.3 0.00 0.12 0.00 56 1010.7
20260903190521 84 293 3.5 8.7 0.00 0.12 0.00 55 1010.8
20260903185521 84 0 2.6 4.3 0.00 0.12 0.00 56 1010.9
20260903184521 84 293 2.6 5.2 0.00 0.12 0.00 55 1011.0
20260903183521 84 338 1.7 4.3 0.00 0.12 0.00 56 1011.0
20260903182521 84 23 2.6 6.1 0.00 0.12 0.00 57 1010.9
20260903181521 85 338 2.6 8.7 0.00 0.12 0.00 56 1011.0
20260903180521 84 338 3.5 7.0 0.00 0.12 0.00 57 1011.0
20260903175521 84 315 2.6 5.2 0.00 0.12 0.00 55 1011.1
20260903174521 83 23 3.5 10.4 0.00 0.12 0.00 56 1011.2
20260903173521 82 338 1.7 3.5 0.00 0.12 0.00 61 1011.2
20260903172522 81 248 2.6 5.2 0.00 0.12 0.00 63 1011.2
20260903171521 82 270 3.5 5.2 0.00 0.12 0.00 63 1011.3
20260903170542 82 0 1.7 4.3 0.00 0.12 0.00 64 1011.2
20260903165521 82 270 2.6 5.2 0.00 0.12 0.00 62 1011.3
20260903164521 82 248 2.6 5.2 0.00 0.12 0.00 66 1011.5
20260903163521 80 338 3.5 6.1 0.00 0.12 0.00 65 1011.6
20260903162521 80 293 3.5 7.8 0.00 0.12 0.00 67 1011.7
20260903161601 80 293 3.5 7.0 0.00 0.12 0.00 70 1011.7
20260903160521 80 293 3.5 6.1 0.00 0.12 0.00 69 1011.7
20260903155541 79 248 2.6 5.2 0.00 0.12 0.00 73 1011.8
20260903154520 79 293 3.5 8.7 0.00 0.12 0.00 74 1011.8
20260903153521 78 293 3.5 6.1 0.00 0.13 0.00 76 1011.9
20260903152521 78 293 3.5 6.1 0.00 0.19 0.00 77 1012.0
20260903151520 77 270 4.3 8.7 0.00 0.38 0.00 79 1012.0
20260903150521 76 293 4.3 10.4 0.00 0.70 0.00 80 1012.2
20260903145520 76 248 2.6 4.3 0.00 1.21 0.00 82 1012.2
20260903144523 75 270 2.6 5.2 0.00 1.27 0.00 83 1012.1
20260903143520 74 270 1.7 3.5 0.00 1.36 0.00 84 1012.1
20260903142520 74 248 2.6 5.2 0.00 1.55 0.00 84 1012.0
20260903141520 73 225 3.5 8.7 0.00 1.81 0.00 85 1012.0
20260903140520 73 225 1.7 6.1 0.00 1.92 0.00 85 1012.1
20260903135520 73 225 2.6 6.1 0.00 1.96 0.00 85 1011.8
20260903134520 73 225 2.6 5.2 0.00 1.98 0.00 85 1011.9
20260903133522 73 203 1.7 3.5 0.00 2.00 0.00 85 1012.0
20260903132520 73 225 1.7 5.2 0.00 2.00 0.00 84 1011.9
20260903131520 73 225 2.6 3.5 0.00 2.00 0.00 84 1011.9
20260903130520 73 225 3.5 6.1 0.00 2.00 0.00 83 1011.9
20260903125520 73 225 2.6 5.2 0.00 2.00 0.00 83 1011.8
20260903124521 73 225 1.7 4.3 0.00 2.00 0.00 83 1011.9
20260903123520 73 203 1.7 6.1 0.00 2.00 0.00 83 1011.8
20260903122520 73 248 1.7 4.3 0.00 2.00 0.00 84 1011.7
20260903121520 72 225 0.9 2.6 0.00 2.00 0.00 84 1011.8
20260903120540 72 158 1.7 3.5 0.00 2.00 0.00 84 1011.6
20260903115524 72 180 0.9 2.6 0.00 2.00 0.00 85 1011.6
20260903114520 71 248 1.7 2.6 0.00 2.00 0.00 86 1011.6
20260903113520 71 158 2.6 6.1 0.00 2.00 0.00 86 1011.5
20260903112520 71 135 0.9 1.7 0.00 2.00 0.00 86 1011.3
20260903111520 71 158 1.7 3.5 0.00 2.00 0.00 87 1011.1
20260903110520 71 158 0.9 1.7 0.00 2.00 0.00 87 1011.1
20260903105520 70 0.0 1.7 0.00 2.00 0.00 87 1010.9
20260903104519 70 0.0 1.7 0.00 2.00 0.00 87 1011.0
20260903103519 70 158 1.7 3.5 0.00 2.00 0.00 88 1011.1
20260903102522 70 135 0.9 2.6 0.00 2.00 0.00 88 1011.0
20260903101522 70 158 0.9 2.6 0.00 2.00 0.00 88 1010.9
20260903100541 70 135 0.9 1.7 0.00 2.00 0.00 88 1010.8
20260903095521 70 158 0.9 1.7 0.00 2.00 0.00 88 1010.9
20260903094522 70 158 0.9 2.6 0.00 2.00 0.00 88 1010.9
20260903093521 70 158 1.7 3.5 0.00 2.00 0.00 88 1011.0
20260903092521 70 0.0 0.0 0.00 2.00 0.00 88 1011.0
20260903091522 70 0.0 1.7 0.00 2.00 0.00 88 1010.9
20260903090521 70 0.0 0.9 0.00 2.00 0.00 88 1010.9
20260903085521 70 158 0.9 3.5 0.00 2.00 0.00 88 1010.7
20260903084521 70 0.0 2.6 0.00 2.00 0.00 88 1010.8
20260903083521 70 135 0.9 2.6 0.00 2.00 0.00 87 1010.8
20260903082521 71 135 0.9 2.6 0.00 2.00 0.00 86 1010.9
20260903081541 71 180 2.6 6.1 0.00 2.00 0.00 86 1010.7
20260903080521 70 0.0 0.9 0.00 2.00 0.00 87 1010.9
20260903075601 70 0.0 2.6 0.00 2.00 0.00 87 1011.0
20260903074521 70 0.0 0.9 0.00 2.00 0.00 87 1010.9
20260903073521 70 158 0.9 1.7 0.00 2.00 0.00 88 1011.1
20260903072541 70 225 1.7 3.5 0.00 2.00 0.00 88 1011.2
20260903071521 70 158 0.9 2.6 0.00 2.00 0.00 89 1011.2
20260903070520 69 158 0.9 2.6 0.00 2.00 0.00 89 1011.3
20260903065520 69 135 0.9 1.7 0.00 2.00 0.00 90 1011.3
20260903064521 69 180 2.6 4.3 0.00 2.00 0.00 90 1011.1
20260903063541 69 158 0.9 2.6 0.00 2.00 0.00 90 1011.1
20260903062522 69 0.0 0.0 0.00 2.00 0.00 90 1011.0
20260903061520 69 0.0 1.7 0.00 2.00 0.00 90 1011.0
20260903060521 69 0.0 0.0 0.00 2.00 0.00 90 1011.1
20260903055521 69 158 0.9 2.6 0.00 2.00 0.00 90 1010.9
20260903054520 69 158 1.7 4.3 0.00 2.00 0.00 90 1011.0
20260903053522 69 0.0 0.0 0.00 2.00 0.00 89 1011.0
20260903052520 69 0.0 0.0 0.00 2.00 0.00 89 1010.9
20260903051520 69 0.0 0.0 0.00 2.00 0.00 89 1010.9
20260903050520 69 0.0 0.0 0.00 2.00 0.00 88 1010.7
20260903045520 69 0.0 0.0 0.00 2.00 0.00 88 1010.9
20260903044520 69 0.0 0.0 0.00 2.00 0.00 88 1010.7
20260903043520 69 0.0 0.9 0.00 2.00 0.00 88 1010.5
20260903042520 69 0.0 0.9 0.00 2.00 0.00 88 1010.7
20260903041520 70 135 1.7 6.1 0.00 2.00 0.00 88 1010.9
20260903040520 70 158 1.7 3.5 0.00 2.00 0.00 88 1011.0
20260903035520 69 180 1.7 5.2 0.00 2.00 2.00 89 1011.5
20260903034520 69 180 1.7 7.8 0.00 2.00 2.00 89 1011.4
20260903033520 69 45 0.9 3.5 0.02 2.00 2.00 89 1011.4
20260903032520 69 0 0.9 1.7 0.02 2.00 2.00 89 1011.4
20260903031521 68 180 5.2 10.4 0.03 2.00 2.00 89 1010.5
20260903030520 68 158 8.7 15.6 0.03 2.00 2.00 89 1009.6
20260903025520 69 203 7.8 13.0 0.03 2.00 2.00 89 1009.8
20260903024540 69 180 6.1 10.4 0.05 2.00 2.00 89 1010.2
20260903023520 70 180 7.8 12.2 0.03 1.98 1.98 88 1010.3
20260903022520 70 180 6.1 11.3 0.03 1.98 1.98 88 1011.0
20260903021520 70 180 7.8 13.9 0.03 1.97 1.97 88 1010.9
20260903020600 71 180 9.6 20.0 0.06 1.97 1.97 87 1010.4
20260903015542 72 203 11.3 18.2 0.08 1.97 1.97 86 1011.2
20260903014520 73 203 6.1 12.2 0.07 1.95 1.95 88 1012.0
20260903013521 73 180 12.2 18.2 0.07 1.95 1.95 88 1011.6
20260903012520 73 158 12.2 16.5 0.07 1.95 1.95 88 1011.1
20260903011520 74 158 5.2 8.7 0.06 1.94 1.94 87 1011.7
20260903010520 74 180 3.5 7.0 0.03 1.91 1.91 85 1012.4